BAW31 EGLL-VHHH

Flight info

Callsign BAW31
Flight time N/A
Altitude 33000
Route DET1J DET L6 DVR UL9 KONAN UL607 KOK DCT MATUG DCT BOMBI DCT TENLO DCT DEXIT DCT BEGLA DCT DEGET DCT UDROS UM859 KARDE UL851 TBN UM11 REBLO M11 MATAL T916 LEYLA N161 GASBI/K0913F330 N161 SARIN/K0907S1010 A368 FKG W192 ESDEX W191 ATNOK/K0915S1070 W191 DNC W565 BIGUX B330 KWE W181 DUDIT A599 POU R473 SIERA SIERA7C
Aircraft A35K/H-SDE2E3GHIJ3J4J5LM1ORWXY/LB1D1

Departure

Time 2026-05-05 05:45
Airport London Heathrow Airport (EGLL)

Arrival

Time N/A
Airport Hong Kong International Airport (VHHH)
Time Latitude Longitude Altitude Speed Heading
2026-05-05 04:57 51.47224 -0.47492 92 ft 0 kts 270°
2026-05-05 05:03 51.47224 -0.47491 92 ft 0 kts 270°
2026-05-05 05:32 51.47224 -0.47478 92 ft 4 kts 270°
2026-05-05 05:32 51.47224 -0.47435 93 ft 4 kts 270°
2026-05-05 05:32 51.47224 -0.47399 93 ft 4 kts 264°
2026-05-05 05:32 51.47232 -0.47364 92 ft 4 kts 213°
2026-05-05 05:33 51.47255 -0.47353 92 ft 3 kts 180°
2026-05-05 05:33 51.47282 -0.47353 92 ft 4 kts 180°
2026-05-05 05:33 51.47290 -0.47354 93 ft 0 kts 180°
2026-05-05 05:37 51.47288 -0.47353 93 ft 1 kts 180°
2026-05-05 05:38 51.47278 -0.47353 94 ft 3 kts 180°
2026-05-05 05:38 51.47248 -0.47353 93 ft 6 kts 180°
2026-05-05 05:38 51.47195 -0.47353 95 ft 8 kts 180°
2026-05-05 05:38 51.47138 -0.47352 92 ft 8 kts 180°
2026-05-05 05:39 51.47078 -0.47352 95 ft 9 kts 180°
2026-05-05 05:39 51.47016 -0.47351 92 ft 9 kts 180°
2026-05-05 05:39 51.46951 -0.47350 93 ft 10 kts 180°
2026-05-05 05:39 51.46883 -0.47350 94 ft 10 kts 180°
2026-05-05 05:40 51.46813 -0.47349 92 ft 10 kts 180°
2026-05-05 05:40 51.46741 -0.47348 94 ft 10 kts 180°
2026-05-05 05:40 51.46684 -0.47351 93 ft 7 kts 191°
2026-05-05 05:40 51.46656 -0.47401 96 ft 6 kts 250°
2026-05-05 05:41 51.46654 -0.47468 92 ft 6 kts 269°
2026-05-05 05:41 51.46654 -0.47544 92 ft 9 kts 270°
2026-05-05 05:41 51.46654 -0.47666 92 ft 11 kts 270°
2026-05-05 05:41 51.46653 -0.47790 92 ft 11 kts 270°
2026-05-05 05:42 51.46653 -0.47917 92 ft 11 kts 270°
2026-05-05 05:42 51.46653 -0.48044 92 ft 11 kts 270°
2026-05-05 05:42 51.46653 -0.48171 94 ft 11 kts 270°
2026-05-05 05:42 51.46652 -0.48298 95 ft 11 kts 270°
2026-05-05 05:43 51.46652 -0.48425 92 ft 12 kts 270°
2026-05-05 05:43 51.46652 -0.48556 95 ft 12 kts 270°
2026-05-05 05:43 51.46650 -0.48688 95 ft 12 kts 263°
2026-05-05 05:43 51.46607 -0.48759 95 ft 9 kts 201°
2026-05-05 05:44 51.46546 -0.48785 95 ft 9 kts 188°
2026-05-05 05:44 51.46493 -0.48749 96 ft 8 kts 131°
2026-05-05 05:44 51.46478 -0.48681 96 ft 0 kts 91°
2026-05-05 05:44 51.46478 -0.48642 95 ft 19 kts 91°
2026-05-05 05:45 51.46479 -0.48028 93 ft 90 kts 90°
2026-05-05 05:45 51.46485 -0.46674 99 ft 151 kts 90°
2026-05-05 05:45 51.46490 -0.44715 265 ft 188 kts 88°
2026-05-05 05:45 51.46466 -0.42654 1108 ft 187 kts 92°
2026-05-05 05:46 51.46037 -0.40635 1602 ft 202 kts 117°
2026-05-05 05:46 51.45232 -0.38680 1760 ft 219 kts 120°
2026-05-05 05:46 51.44512 -0.36454 1906 ft 232 kts 105°
2026-05-05 05:46 51.43980 -0.33914 2051 ft 250 kts 104°
2026-05-05 05:47 51.43464 -0.31208 2498 ft 252 kts 103°
2026-05-05 05:47 51.42968 -0.28536 3137 ft 249 kts 103°
2026-05-05 05:47 51.42488 -0.25861 3636 ft 250 kts 102°
2026-05-05 05:47 51.42087 -0.23051 3792 ft 264 kts 98°
2026-05-05 05:48 51.41767 -0.20150 4281 ft 266 kts 97°
2026-05-05 05:48 51.41441 -0.17199 4654 ft 272 kts 99°
2026-05-05 05:48 51.41051 -0.14229 5122 ft 274 kts 100°
2026-05-05 05:48 51.40634 -0.11228 5599 ft 277 kts 101°
2026-05-05 05:49 51.40204 -0.08210 6083 ft 280 kts 101°
2026-05-05 05:49 51.39770 -0.05154 6573 ft 282 kts 102°
2026-05-05 05:49 51.39333 -0.02076 7083 ft 284 kts 102°
2026-05-05 05:49 51.38894 0.01010 7619 ft 285 kts 101°
2026-05-05 05:50 51.38452 0.04115 8142 ft 287 kts 101°
2026-05-05 05:50 51.38006 0.07250 8608 ft 291 kts 102°
2026-05-05 05:50 51.37555 0.10419 9113 ft 293 kts 102°
2026-05-05 05:50 51.37100 0.13567 9673 ft 294 kts 102°
2026-05-05 05:51 51.36634 0.16773 10107 ft 298 kts 103°
2026-05-05 05:51 51.36158 0.20069 10359 ft 310 kts 102°
2026-05-05 05:51 51.35667 0.23501 10603 ft 322 kts 102°
2026-05-05 05:51 51.35168 0.26966 10841 ft 333 kts 103°
2026-05-05 05:52 51.34636 0.30653 11093 ft 345 kts 103°
2026-05-05 05:52 51.34086 0.34459 11337 ft 357 kts 103°
2026-05-05 05:52 51.33517 0.38387 11582 ft 368 kts 103°
2026-05-05 05:52 51.32929 0.42440 11829 ft 379 kts 103°
2026-05-05 05:53 51.32323 0.46600 12181 ft 388 kts 103°
2026-05-05 05:53 51.31712 0.50839 12607 ft 392 kts 103°
2026-05-05 05:53 51.31089 0.55082 13094 ft 395 kts 103°
2026-05-05 05:53 51.30464 0.59322 13576 ft 398 kts 103°
2026-05-05 05:54 51.29805 0.63631 14031 ft 400 kts 105°
2026-05-05 05:54 51.29049 0.67913 14482 ft 402 kts 107°
2026-05-05 05:54 51.28232 0.72226 14941 ft 404 kts 107°
2026-05-05 05:54 51.27402 0.76527 15385 ft 406 kts 107°
2026-05-05 05:55 51.26572 0.80853 15861 ft 408 kts 107°
2026-05-05 05:55 51.25747 0.85210 16278 ft 411 kts 107°
2026-05-05 05:55 51.24927 0.89589 16721 ft 412 kts 107°
2026-05-05 05:55 51.24112 0.93976 17183 ft 413 kts 107°
2026-05-05 05:56 51.23293 0.98391 17556 ft 417 kts 107°
2026-05-05 05:56 51.22464 1.02855 17913 ft 421 kts 107°
2026-05-05 05:56 51.21630 1.07345 18377 ft 422 kts 107°
2026-05-05 05:56 51.20793 1.11836 18791 ft 424 kts 107°
2026-05-05 05:57 51.19947 1.16357 19139 ft 427 kts 107°
2026-05-05 05:57 51.19102 1.20863 19537 ft 429 kts 107°
2026-05-05 05:57 51.18243 1.25431 19977 ft 430 kts 108°
2026-05-05 05:57 51.17381 1.30002 20355 ft 433 kts 108°
2026-05-05 05:58 51.16592 1.34668 20698 ft 438 kts 102°
2026-05-05 05:58 51.16146 1.39481 21141 ft 440 kts 98°
2026-05-05 05:58 51.15823 1.44348 21540 ft 443 kts 97°
2026-05-05 05:58 51.15562 1.49272 21924 ft 446 kts 96°
2026-05-05 05:59 51.15333 1.54220 22329 ft 448 kts 96°
2026-05-05 05:59 51.15110 1.59182 22697 ft 451 kts 96°
2026-05-05 05:59 51.14892 1.63972 23057 ft 454 kts 96°
2026-05-05 05:59 51.14667 1.68818 23461 ft 456 kts 96°
2026-05-05 06:00 51.14422 1.73887 23758 ft 459 kts 96°
2026-05-05 06:00 51.14169 1.78976 24035 ft 462 kts 96°
2026-05-05 06:00 51.13909 1.84100 24320 ft 465 kts 97°
2026-05-05 06:00 51.13643 1.89250 24623 ft 468 kts 97°
2026-05-05 06:01 51.13372 1.94450 24869 ft 472 kts 96°
2026-05-05 06:01 51.13097 1.99682 25166 ft 475 kts 96°
2026-05-05 06:01 51.12827 2.04878 25486 ft 477 kts 97°
2026-05-05 06:01 51.12546 2.10181 25784 ft 479 kts 97°
2026-05-05 06:02 51.12261 2.15489 26095 ft 481 kts 97°
2026-05-05 06:02 51.11975 2.20760 26375 ft 484 kts 97°
2026-05-05 06:02 51.11682 2.26107 26676 ft 486 kts 97°
2026-05-05 06:02 51.11385 2.31497 26962 ft 489 kts 97°
2026-05-05 06:03 51.11085 2.36899 27229 ft 491 kts 97°
2026-05-05 06:03 51.10781 2.42330 27453 ft 494 kts 97°
2026-05-05 06:03 51.10473 2.47784 27728 ft 496 kts 97°
2026-05-05 06:03 51.10162 2.53270 28002 ft 498 kts 97°
2026-05-05 06:04 51.09846 2.58772 28247 ft 500 kts 98°
2026-05-05 06:04 51.09438 2.64276 28485 ft 500 kts 103°
2026-05-05 06:04 51.08705 2.69702 28753 ft 500 kts 106°
2026-05-05 06:04 51.07875 2.75086 29096 ft 499 kts 107°
2026-05-05 06:05 51.07008 2.80417 29455 ft 498 kts 108°
2026-05-05 06:05 51.06129 2.85680 29741 ft 498 kts 108°
2026-05-05 06:05 51.04311 2.96434 30063 ft 503 kts 109°
2026-05-05 06:06 51.03417 3.01736 30374 ft 501 kts 109°
2026-05-05 06:06 51.02517 3.07079 30649 ft 501 kts 109°
2026-05-05 06:06 51.01615 3.12429 30886 ft 500 kts 109°
2026-05-05 06:06 51.00713 3.17768 31132 ft 500 kts 109°
2026-05-05 06:07 50.99812 3.23090 31363 ft 499 kts 109°
2026-05-05 06:07 50.98908 3.28415 31578 ft 499 kts 109°
2026-05-05 06:07 50.98001 3.33741 31737 ft 499 kts 109°
2026-05-05 06:07 50.97088 3.39080 31891 ft 500 kts 109°
2026-05-05 06:08 50.96178 3.44389 32121 ft 499 kts 109°
2026-05-05 06:08 50.95278 3.49620 32347 ft 498 kts 109°
2026-05-05 06:08 50.94351 3.54995 32545 ft 497 kts 109°
2026-05-05 06:08 50.93449 3.60209 32733 ft 497 kts 109°
2026-05-05 06:09 50.92533 3.65489 32898 ft 497 kts 109°
2026-05-05 06:09 50.91609 3.70791 32935 ft 499 kts 110°
2026-05-05 06:09 50.89744 3.81449 32927 ft 503 kts 110°
2026-05-05 06:10 50.87877 3.92067 32931 ft 503 kts 110°
2026-05-05 06:10 50.85983 4.02772 32927 ft 503 kts 110°
2026-05-05 06:11 50.84086 4.13429 32926 ft 503 kts 110°
2026-05-05 06:11 50.82185 4.24047 32930 ft 503 kts 110°
2026-05-05 06:12 50.80267 4.34697 32934 ft 503 kts 110°
2026-05-05 06:12 50.78352 4.45270 32933 ft 502 kts 111°
2026-05-05 06:13 50.76423 4.55857 32932 ft 500 kts 111°
2026-05-05 06:13 50.74486 4.66418 32927 ft 500 kts 111°
2026-05-05 06:14 50.72534 4.77000 32905 ft 503 kts 111°
2026-05-05 06:14 50.70581 4.87533 32903 ft 503 kts 111°
2026-05-05 06:15 50.68606 4.98129 32907 ft 503 kts 111°
2026-05-05 06:15 50.66624 5.08704 32906 ft 503 kts 111°
2026-05-05 06:16 50.64629 5.19277 32905 ft 504 kts 112°
2026-05-05 06:16 50.62613 5.29903 32910 ft 506 kts 112°
2026-05-05 06:17 50.60932 5.38723 32903 ft 506 kts 112°
2026-05-05 06:17 50.58907 5.49293 32897 ft 506 kts 112°
2026-05-05 06:18 50.56529 5.61631 32891 ft 506 kts 112°
2026-05-05 06:18 50.54815 5.70469 32892 ft 508 kts 112°
2026-05-05 06:19 50.52747 5.81087 32892 ft 508 kts 112°
2026-05-05 06:19 50.50662 5.91726 32893 ft 508 kts 112°
2026-05-05 06:20 50.48582 6.02294 32886 ft 507 kts 112°
2026-05-05 06:20 50.46487 6.12872 32892 ft 507 kts 112°
2026-05-05 06:21 50.44381 6.23443 32870 ft 507 kts 112°
2026-05-05 06:21 50.42261 6.34034 32886 ft 508 kts 112°
2026-05-05 06:22 50.40584 6.44787 32867 ft 511 kts 107°
2026-05-05 06:22 50.39065 6.55708 32873 ft 513 kts 107°
2026-05-05 06:23 50.37566 6.66620 32876 ft 514 kts 107°
2026-05-05 06:23 50.36045 6.77570 32876 ft 514 kts 107°
2026-05-05 06:24 50.34507 6.88499 32883 ft 514 kts 107°
2026-05-05 06:24 50.32965 6.99359 32882 ft 515 kts 107°
2026-05-05 06:25 50.31397 7.10318 32886 ft 515 kts 107°
2026-05-05 06:25 50.29819 7.21269 32883 ft 515 kts 107°
2026-05-05 06:26 50.28246 7.32124 32885 ft 515 kts 107°
2026-05-05 06:26 50.26649 7.43057 32882 ft 515 kts 107°
2026-05-05 06:27 50.24233 7.59436 32884 ft 515 kts 108°
2026-05-05 06:28 50.22615 7.70324 32887 ft 515 kts 108°
2026-05-05 06:28 50.20998 7.81126 32889 ft 515 kts 108°
2026-05-05 06:29 50.19359 7.91997 32889 ft 515 kts 108°
2026-05-05 06:29 50.17704 8.02895 32903 ft 515 kts 108°
2026-05-05 06:30 50.16046 8.13735 32907 ft 515 kts 108°
2026-05-05 06:30 50.14381 8.24550 32914 ft 515 kts 108°
2026-05-05 06:31 50.12698 8.35420 32917 ft 515 kts 108°
2026-05-05 06:31 50.11004 8.46295 32879 ft 515 kts 108°
2026-05-05 06:32 50.09308 8.57110 32883 ft 512 kts 108°
2026-05-05 06:32 50.07618 8.67802 32883 ft 511 kts 108°
2026-05-05 06:33 50.05887 8.78531 32878 ft 510 kts 110°
2026-05-05 06:33 50.03670 8.88995 32879 ft 508 kts 113°
2026-05-05 06:34 50.01353 8.99287 32876 ft 507 kts 114°
2026-05-05 06:34 49.98978 9.09689 32875 ft 507 kts 114°
2026-05-05 06:35 49.96630 9.19953 32873 ft 508 kts 114°
2026-05-05 06:35 49.94261 9.30287 32870 ft 507 kts 114°
2026-05-05 06:36 49.91894 9.40578 32875 ft 508 kts 114°
2026-05-05 06:36 49.89507 9.50899 32874 ft 507 kts 114°
2026-05-05 06:37 49.87131 9.61117 32879 ft 507 kts 114°
2026-05-05 06:37 49.84727 9.71412 32878 ft 507 kts 114°
2026-05-05 06:38 49.82312 9.81703 32871 ft 507 kts 114°
2026-05-05 06:38 49.79897 9.91946 32871 ft 507 kts 114°
2026-05-05 06:39 49.77479 10.02153 32866 ft 507 kts 114°
2026-05-05 06:39 49.75031 10.12436 32859 ft 509 kts 114°
2026-05-05 06:40 49.72581 10.22684 32865 ft 506 kts 114°
2026-05-05 06:40 49.70137 10.32857 32866 ft 505 kts 114°
2026-05-05 06:41 49.67698 10.42961 32852 ft 505 kts 114°
2026-05-05 06:41 49.65326 10.52740 32866 ft 504 kts 114°
2026-05-05 06:42 49.62857 10.62874 32872 ft 504 kts 114°
2026-05-05 06:42 49.60378 10.73005 32876 ft 504 kts 114°
2026-05-05 06:43 49.57907 10.83059 32864 ft 504 kts 114°
2026-05-05 06:43 49.55724 10.91893 32883 ft 505 kts 114°
2026-05-05 06:44 49.53416 11.01208 32883 ft 505 kts 114°
2026-05-05 06:44 49.50891 11.11155 32883 ft 505 kts 116°
2026-05-05 06:45 49.48171 11.21047 32885 ft 504 kts 117°
2026-05-05 06:45 49.45423 11.30918 32869 ft 505 kts 116°
2026-05-05 06:46 49.42677 11.40855 32862 ft 505 kts 116°
2026-05-05 06:46 49.39949 11.50752 32862 ft 505 kts 116°
2026-05-05 06:47 49.39664 11.51785 32862 ft 505 kts 116°
2026-05-05 06:47 49.39320 11.53031 32847 ft 505 kts 116°
2026-05-05 06:48 49.36571 11.62964 32858 ft 503 kts 116°
2026-05-05 06:48 49.33857 11.72729 32857 ft 504 kts 116°
2026-05-05 06:49 49.31185 11.82297 32857 ft 505 kts 116°
2026-05-05 06:49 49.28405 11.92211 32855 ft 505 kts 116°
2026-05-05 06:50 49.25643 12.02017 32858 ft 505 kts 116°
2026-05-05 06:50 49.22856 12.11875 32856 ft 505 kts 116°
2026-05-05 06:51 49.20050 12.21759 32853 ft 505 kts 116°
2026-05-05 06:51 49.17241 12.31615 32852 ft 505 kts 116°
2026-05-05 06:52 49.14425 12.41453 32855 ft 505 kts 116°
2026-05-05 06:52 49.11620 12.51211 32847 ft 505 kts 116°
2026-05-05 06:53 49.08779 12.61056 32854 ft 505 kts 116°
2026-05-05 06:53 49.05937 12.70862 32853 ft 505 kts 116°
2026-05-05 06:54 49.04428 12.76054 32854 ft 505 kts 116°
2026-05-05 06:54 49.01573 12.85847 32855 ft 504 kts 116°
2026-05-05 06:55 48.98716 12.95607 32856 ft 503 kts 116°
2026-05-05 06:55 48.95968 13.04956 32854 ft 503 kts 117°
2026-05-05 06:56 48.93133 13.14563 32855 ft 503 kts 117°
2026-05-05 06:56 48.90256 13.24277 32856 ft 503 kts 117°
2026-05-05 06:57 48.87391 13.33909 32856 ft 503 kts 116°
2026-05-05 06:57 48.84534 13.43477 32857 ft 502 kts 116°
2026-05-05 06:58 48.81649 13.53101 32859 ft 502 kts 117°
2026-05-05 06:58 48.78741 13.62761 32860 ft 502 kts 117°
2026-05-05 06:59 48.75844 13.72355 32872 ft 503 kts 116°
2026-05-05 06:59 48.73359 13.81622 32853 ft 504 kts 112°
2026-05-05 07:00 48.70927 13.91556 32872 ft 504 kts 112°
2026-05-05 07:00 48.68452 14.01476 32856 ft 504 kts 112°
2026-05-05 07:01 48.65910 14.11386 32853 ft 505 kts 112°
2026-05-05 07:01 48.63355 14.21232 32866 ft 505 kts 113°
2026-05-05 07:02 48.60777 14.31116 32865 ft 505 kts 113°
2026-05-05 07:02 48.58207 14.40939 32856 ft 505 kts 113°
2026-05-05 07:03 48.55618 14.50798 32858 ft 504 kts 113°
2026-05-05 07:03 48.53024 14.60635 32857 ft 504 kts 113°
2026-05-05 07:04 48.50418 14.70476 32856 ft 504 kts 113°
2026-05-05 07:04 48.47809 14.80284 32864 ft 504 kts 113°
2026-05-05 07:05 48.45208 14.90023 32859 ft 503 kts 113°
2026-05-05 07:05 48.42580 14.99820 32858 ft 503 kts 113°
2026-05-05 07:06 48.39961 15.09544 32859 ft 503 kts 113°
2026-05-05 07:06 48.37765 15.17668 32859 ft 503 kts 113°
2026-05-05 07:07 48.35119 15.27420 32858 ft 502 kts 114°
2026-05-05 07:07 48.32625 15.36568 32865 ft 501 kts 114°
2026-05-05 07:08 48.29973 15.46261 32866 ft 501 kts 114°
2026-05-05 07:08 48.27330 15.55883 32867 ft 501 kts 114°
2026-05-05 07:09 48.24663 15.65555 32865 ft 500 kts 114°
2026-05-05 07:09 48.21999 15.75172 32870 ft 498 kts 114°
2026-05-05 07:10 48.19326 15.84783 32865 ft 500 kts 114°
2026-05-05 07:10 48.16654 15.94356 32869 ft 501 kts 114°
2026-05-05 07:11 48.13952 16.03991 32860 ft 500 kts 114°
2026-05-05 07:11 48.11249 16.13592 32863 ft 499 kts 114°
2026-05-05 07:12 48.08544 16.23166 32871 ft 499 kts 114°
2026-05-05 07:12 48.05850 16.32659 32866 ft 499 kts 115°
2026-05-05 07:13 48.03130 16.42213 32877 ft 499 kts 115°
2026-05-05 07:13 48.00396 16.51773 32879 ft 500 kts 115°
2026-05-05 07:14 47.97659 16.61306 32879 ft 500 kts 115°
2026-05-05 07:14 47.94912 16.70837 32883 ft 500 kts 115°
2026-05-05 07:15 47.92156 16.80359 32881 ft 500 kts 115°
2026-05-05 07:15 47.89393 16.89873 32893 ft 500 kts 115°
2026-05-05 07:16 47.87731 16.95574 32892 ft 500 kts 115°
2026-05-05 07:16 47.84956 17.05066 32891 ft 500 kts 115°
2026-05-05 07:17 47.82170 17.14563 32889 ft 500 kts 115°
2026-05-05 07:17 47.79373 17.23985 32893 ft 501 kts 116°
2026-05-05 07:18 47.76543 17.33444 32904 ft 501 kts 116°
2026-05-05 07:18 47.73704 17.42913 32918 ft 501 kts 116°
2026-05-05 07:19 47.70867 17.52349 32916 ft 501 kts 116°
2026-05-05 07:19 47.68013 17.61803 32947 ft 501 kts 116°
2026-05-05 07:20 47.65156 17.71238 32928 ft 502 kts 116°
2026-05-05 07:20 47.62292 17.80662 32939 ft 501 kts 116°
2026-05-05 07:21 47.59413 17.90091 32958 ft 502 kts 116°
2026-05-05 07:21 47.56525 17.99518 32957 ft 504 kts 116°
2026-05-05 07:22 47.53620 18.08965 32965 ft 503 kts 116°
2026-05-05 07:22 47.50724 18.18351 32971 ft 504 kts 116°
2026-05-05 07:23 47.47805 18.27768 32972 ft 503 kts 116°
2026-05-05 07:23 47.44884 18.37158 32981 ft 503 kts 116°
2026-05-05 07:24 47.41966 18.46506 32987 ft 503 kts 116°
2026-05-05 07:24 47.39030 18.55877 32982 ft 502 kts 116°
2026-05-05 07:25 47.36088 18.65231 32988 ft 501 kts 116°
2026-05-05 07:25 47.33155 18.74525 32992 ft 500 kts 116°
2026-05-05 07:26 47.30215 18.83808 32998 ft 500 kts 116°
2026-05-05 07:26 47.27284 18.93025 33007 ft 500 kts 116°
2026-05-05 07:27 47.24318 19.02315 33013 ft 500 kts 116°
2026-05-05 07:27 47.21353 19.11576 33012 ft 500 kts 116°
2026-05-05 07:28 47.18376 19.20835 33017 ft 500 kts 116°
2026-05-05 07:28 47.15393 19.30082 33016 ft 500 kts 116°
2026-05-05 07:29 47.12403 19.39316 33021 ft 502 kts 116°
2026-05-05 07:29 47.09404 19.48545 33023 ft 503 kts 116°
2026-05-05 07:30 47.06388 19.57793 33023 ft 503 kts 116°
2026-05-05 07:30 47.01848 19.71654 33047 ft 503 kts 115°
2026-05-05 07:31 46.98811 19.80882 33048 ft 503 kts 116°
2026-05-05 07:31 46.95764 19.90106 33047 ft 503 kts 116°
2026-05-05 07:32 46.92708 19.99327 33045 ft 503 kts 116°
2026-05-05 07:32 46.89663 20.08480 33044 ft 504 kts 115°
2026-05-05 07:33 46.86590 20.17690 33042 ft 504 kts 115°
2026-05-05 07:33 46.83506 20.26898 33040 ft 504 kts 115°
2026-05-05 07:34 46.80415 20.36094 33045 ft 504 kts 116°
2026-05-05 07:34 46.77323 20.45260 33048 ft 503 kts 116°
2026-05-05 07:35 46.74219 20.54428 33048 ft 504 kts 116°
2026-05-05 07:35 46.71111 20.63577 33048 ft 504 kts 116°
2026-05-05 07:36 46.68013 20.72661 33046 ft 504 kts 115°
2026-05-05 07:36 46.64884 20.81810 33048 ft 505 kts 116°
2026-05-05 07:37 46.61745 20.90953 33053 ft 505 kts 116°
2026-05-05 07:37 46.58596 21.00097 33053 ft 505 kts 116°
2026-05-05 07:38 46.55442 21.09220 33053 ft 505 kts 116°
2026-05-05 07:38 46.52299 21.18282 33050 ft 505 kts 116°
2026-05-05 07:39 46.49125 21.27402 33047 ft 505 kts 116°
2026-05-05 07:39 46.45995 21.36555 33048 ft 505 kts 115°
2026-05-05 07:40 46.42907 21.45704 33050 ft 505 kts 115°
2026-05-05 07:40 46.39807 21.54841 33057 ft 505 kts 115°
2026-05-05 07:41 46.36709 21.63903 33050 ft 505 kts 115°
2026-05-05 07:41 46.33580 21.73018 33066 ft 505 kts 115°
2026-05-05 07:42 46.30448 21.82103 33053 ft 505 kts 115°
2026-05-05 07:42 46.27306 21.91190 33052 ft 505 kts 115°
2026-05-05 07:43 46.24161 22.00257 33056 ft 505 kts 115°
2026-05-05 07:43 46.21003 22.09330 33057 ft 505 kts 115°
2026-05-05 07:44 46.17867 22.18310 33052 ft 504 kts 115°
2026-05-05 07:44 46.14704 22.27332 33055 ft 504 kts 115°
2026-05-05 07:45 46.11528 22.36364 33078 ft 504 kts 115°
2026-05-05 07:45 46.08355 22.45354 33066 ft 504 kts 115°
2026-05-05 07:46 46.05167 22.54358 33068 ft 503 kts 115°
2026-05-05 07:46 46.01982 22.63324 33065 ft 503 kts 115°
2026-05-05 07:47 45.98782 22.72304 33063 ft 503 kts 115°
2026-05-05 07:47 45.95604 22.81190 33071 ft 502 kts 115°
2026-05-05 07:48 45.92403 22.90111 33068 ft 502 kts 115°
2026-05-05 07:48 45.89193 22.99029 33068 ft 502 kts 115°
2026-05-05 07:49 45.85976 23.07934 33078 ft 502 kts 115°
2026-05-05 07:49 45.82775 23.16767 33074 ft 501 kts 115°
2026-05-05 07:50 45.79552 23.25632 33076 ft 501 kts 115°
2026-05-05 07:50 45.76322 23.34489 33072 ft 502 kts 115°
2026-05-05 07:51 45.73078 23.43352 33077 ft 501 kts 115°
2026-05-05 07:51 45.69830 23.52197 33086 ft 502 kts 115°
2026-05-05 07:52 45.66578 23.61030 33079 ft 502 kts 115°
2026-05-05 07:52 45.63318 23.69854 33083 ft 502 kts 115°
2026-05-05 07:53 45.60048 23.78668 33086 ft 502 kts 115°
2026-05-05 07:53 45.56794 23.87414 33088 ft 502 kts 115°
2026-05-05 07:54 45.53515 23.96201 33083 ft 502 kts 115°
2026-05-05 07:54 45.50781 24.03512 33093 ft 502 kts 115°
2026-05-05 07:55 45.47491 24.12280 33082 ft 501 kts 115°
2026-05-05 07:55 45.44192 24.21039 33076 ft 502 kts 115°
2026-05-05 07:56 45.40883 24.29795 33077 ft 501 kts 116°
2026-05-05 07:56 45.37593 24.38472 33064 ft 501 kts 116°
2026-05-05 07:57 45.34283 24.47178 33081 ft 501 kts 116°
2026-05-05 07:57 45.30961 24.55886 33056 ft 501 kts 116°
2026-05-05 07:58 45.27636 24.64576 33045 ft 501 kts 116°
2026-05-05 07:58 45.24301 24.73265 33056 ft 501 kts 116°
2026-05-05 07:59 45.20959 24.81945 33055 ft 500 kts 116°
2026-05-05 07:59 45.17613 24.90615 33056 ft 501 kts 116°
2026-05-05 08:00 45.14283 24.99208 33069 ft 501 kts 116°
2026-05-05 08:00 45.10930 25.07833 33056 ft 500 kts 116°
2026-05-05 08:01 45.07568 25.16459 33054 ft 500 kts 116°
2026-05-05 08:01 45.04193 25.25091 33054 ft 500 kts 116°
2026-05-05 08:02 45.00818 25.33694 33054 ft 500 kts 117°
2026-05-05 08:02 44.97455 25.42238 33053 ft 500 kts 117°
2026-05-05 08:03 44.94067 25.50823 33052 ft 500 kts 117°
2026-05-05 08:03 44.90675 25.59391 33074 ft 500 kts 117°
2026-05-05 08:04 44.87272 25.67959 33058 ft 500 kts 117°
2026-05-05 08:04 44.83891 25.76447 33059 ft 500 kts 117°
2026-05-05 08:05 44.80477 25.84991 33061 ft 500 kts 117°
2026-05-05 08:05 44.77059 25.93520 33066 ft 499 kts 117°
2026-05-05 08:06 44.73666 26.01960 33070 ft 499 kts 117°
2026-05-05 08:06 44.70229 26.10487 33073 ft 501 kts 117°
2026-05-05 08:07 44.66782 26.19009 33072 ft 501 kts 117°
2026-05-05 08:07 44.63334 26.27506 33056 ft 499 kts 117°
2026-05-05 08:08 44.59914 26.35912 33060 ft 498 kts 117°
2026-05-05 08:08 44.56470 26.44352 33058 ft 498 kts 117°
2026-05-05 08:09 44.53018 26.52785 33057 ft 498 kts 117°
2026-05-05 08:09 44.49561 26.61206 33057 ft 497 kts 117°
2026-05-05 08:10 44.46105 26.69600 33059 ft 497 kts 117°
2026-05-05 08:10 44.42642 26.77986 33058 ft 497 kts 117°
2026-05-05 08:11 44.39174 26.86360 33058 ft 498 kts 117°
2026-05-05 08:11 44.35719 26.94678 33059 ft 498 kts 117°
2026-05-05 08:12 44.32237 27.03035 33059 ft 498 kts 118°
2026-05-05 08:12 44.28747 27.11387 33063 ft 497 kts 118°
2026-05-05 08:13 44.25260 27.19708 33063 ft 496 kts 118°
2026-05-05 08:13 44.21762 27.28029 33062 ft 496 kts 118°
2026-05-05 08:14 44.18273 27.36306 33061 ft 499 kts 118°
2026-05-05 08:14 44.15270 27.43413 33064 ft 497 kts 118°
2026-05-05 08:15 44.11761 27.51690 33066 ft 496 kts 118°
2026-05-05 08:15 44.08246 27.59959 33063 ft 496 kts 118°
2026-05-05 08:16 44.04725 27.68221 33074 ft 496 kts 119°
2026-05-05 08:16 44.01228 27.76400 33066 ft 492 kts 119°
2026-05-05 08:17 43.97729 27.84563 33045 ft 491 kts 119°
2026-05-05 08:17 43.94222 27.92720 33046 ft 491 kts 119°
2026-05-05 08:18 43.90717 28.00849 33067 ft 490 kts 120°
2026-05-05 08:18 43.87214 28.08951 33047 ft 489 kts 120°
2026-05-05 08:19 43.83712 28.17030 33068 ft 489 kts 120°
2026-05-05 08:19 43.80223 28.25056 33042 ft 489 kts 120°
2026-05-05 08:20 43.76712 28.33108 33065 ft 488 kts 120°
2026-05-05 08:20 43.73195 28.41154 33043 ft 488 kts 120°
2026-05-05 08:21 43.69670 28.49193 33072 ft 488 kts 120°
2026-05-05 08:21 43.66162 28.57173 33044 ft 489 kts 120°
2026-05-05 08:22 43.62617 28.65217 33078 ft 490 kts 120°
2026-05-05 08:22 43.59066 28.73250 33060 ft 490 kts 120°
2026-05-05 08:23 43.55502 28.81290 33088 ft 490 kts 120°
2026-05-05 08:23 43.51935 28.89315 33070 ft 490 kts 120°
2026-05-05 08:24 43.48388 28.97272 33098 ft 490 kts 121°
2026-05-05 08:24 43.44813 29.05271 33075 ft 490 kts 121°
2026-05-05 08:25 43.41230 29.13264 33081 ft 491 kts 121°
2026-05-05 08:25 43.37640 29.21253 33078 ft 491 kts 121°
2026-05-05 08:26 43.34044 29.29232 33073 ft 491 kts 121°
2026-05-05 08:26 43.30460 29.37163 33076 ft 491 kts 120°
2026-05-05 08:27 43.26846 29.45140 33074 ft 492 kts 120°
2026-05-05 08:27 43.23224 29.53113 33074 ft 492 kts 121°
2026-05-05 08:28 43.19598 29.61074 33071 ft 492 kts 120°
2026-05-05 08:28 43.15966 29.69025 33067 ft 492 kts 121°
2026-05-05 08:29 43.12327 29.76970 33072 ft 493 kts 121°
2026-05-05 08:30 43.06837 29.88916 33074 ft 494 kts 121°
2026-05-05 08:30 43.03163 29.96882 33067 ft 495 kts 121°
2026-05-05 08:31 42.99507 30.04790 33065 ft 495 kts 121°
2026-05-05 08:31 42.95818 30.12745 33064 ft 496 kts 120°
2026-05-05 08:32 42.92125 30.20688 33064 ft 496 kts 121°
2026-05-05 08:32 42.88417 30.28645 33061 ft 497 kts 120°
2026-05-05 08:33 42.84700 30.36598 33058 ft 497 kts 121°
2026-05-05 08:33 42.80996 30.44501 33062 ft 497 kts 120°
2026-05-05 08:34 42.77262 30.52447 33056 ft 497 kts 120°
2026-05-05 08:34 42.74193 30.60796 33050 ft 491 kts 105°
2026-05-05 08:35 42.72796 30.69841 33048 ft 488 kts 96°
2026-05-05 08:35 42.71865 30.78932 33047 ft 486 kts 95°
2026-05-05 08:36 42.70985 30.88030 33042 ft 484 kts 95°
2026-05-05 08:36 42.70077 30.97098 33042 ft 484 kts 95°
2026-05-05 08:37 42.69139 31.06175 33042 ft 484 kts 95°
2026-05-05 08:37 42.68393 31.13286 33038 ft 484 kts 95°
2026-05-05 08:38 42.67443 31.22278 33034 ft 483 kts 95°
2026-05-05 08:38 42.66485 31.31303 33026 ft 482 kts 95°
2026-05-05 08:39 42.65520 31.40327 33029 ft 482 kts 95°
2026-05-05 08:39 42.64550 31.49317 33033 ft 481 kts 94°
2026-05-05 08:40 42.63574 31.58305 33026 ft 481 kts 94°
2026-05-05 08:40 42.62591 31.67304 33026 ft 481 kts 94°
2026-05-05 08:41 42.61605 31.76244 33023 ft 481 kts 94°
2026-05-05 08:41 42.60605 31.85247 33033 ft 482 kts 94°
2026-05-05 08:42 42.59599 31.94244 33023 ft 483 kts 94°
2026-05-05 08:42 42.58742 32.01860 33023 ft 483 kts 94°
2026-05-05 08:43 42.57743 32.10865 33024 ft 483 kts 94°
2026-05-05 08:43 42.56717 32.19864 33046 ft 483 kts 94°
2026-05-05 08:44 42.55853 32.27331 33088 ft 482 kts 94°
2026-05-05 08:44 42.55332 32.31812 33434 ft 478 kts 94°
2026-05-05 08:44 42.54816 32.36236 33790 ft 474 kts 94°
2026-05-05 08:44 42.54135 32.42080 34121 ft 472 kts 95°
2026-05-05 08:45 42.53789 32.45040 34302 ft 470 kts 95°
2026-05-05 08:45 42.53277 32.49416 34449 ft 469 kts 95°
2026-05-05 08:45 42.52764 32.53798 34526 ft 470 kts 95°
2026-05-05 08:45 42.52249 32.58172 34680 ft 470 kts 95°
2026-05-05 08:46 42.51732 32.62539 34848 ft 469 kts 95°
2026-05-05 08:46 42.50700 32.71231 35005 ft 470 kts 95°
2026-05-05 08:47 42.49648 32.80025 35027 ft 475 kts 95°
2026-05-05 08:47 42.48580 32.88900 35026 ft 478 kts 95°
2026-05-05 08:48 42.47502 32.97773 35026 ft 477 kts 95°
2026-05-05 08:48 42.46417 33.06644 35028 ft 477 kts 95°
2026-05-05 08:49 42.45328 33.15521 35029 ft 477 kts 95°
2026-05-05 08:49 42.44240 33.24322 35027 ft 477 kts 96°
2026-05-05 08:50 42.43131 33.33185 35031 ft 477 kts 95°
2026-05-05 08:50 42.42017 33.42045 35028 ft 477 kts 95°
2026-05-05 08:51 42.40902 33.50896 35027 ft 476 kts 96°
2026-05-05 08:51 42.39778 33.59730 35032 ft 476 kts 96°
2026-05-05 08:52 42.38647 33.68569 35028 ft 477 kts 96°
2026-05-05 08:52 42.37515 33.77370 35032 ft 478 kts 96°
2026-05-05 08:53 42.36366 33.86239 35038 ft 478 kts 96°
2026-05-05 08:53 42.35213 33.95096 35036 ft 478 kts 96°
2026-05-05 08:54 42.34055 34.03969 35032 ft 479 kts 97°
2026-05-05 08:54 42.32895 34.12804 35036 ft 480 kts 97°
2026-05-05 08:55 42.31717 34.21699 35027 ft 480 kts 97°
2026-05-05 08:55 42.30533 34.30599 35039 ft 480 kts 97°
2026-05-05 08:56 42.29344 34.39484 35031 ft 481 kts 98°
2026-05-05 08:56 42.28148 34.48388 35034 ft 482 kts 98°
2026-05-05 08:57 42.26941 34.57252 35028 ft 479 kts 98°
2026-05-05 08:57 42.25737 34.66044 35028 ft 479 kts 98°
2026-05-05 08:58 42.24520 34.74904 35027 ft 479 kts 98°
2026-05-05 08:58 42.23304 34.83732 35026 ft 479 kts 98°
2026-05-05 08:59 42.22071 34.92581 35026 ft 479 kts 98°
2026-05-05 08:59 42.20830 35.01406 35023 ft 479 kts 99°
2026-05-05 09:00 42.19583 35.10233 35026 ft 480 kts 99°
2026-05-05 09:00 42.18325 35.19106 35029 ft 483 kts 99°
2026-05-05 09:01 42.17138 35.27417 35028 ft 483 kts 99°
2026-05-05 09:01 42.15862 35.36310 35026 ft 483 kts 99°
2026-05-05 09:02 42.14580 35.45216 35020 ft 484 kts 99°
2026-05-05 09:02 42.13288 35.54150 35024 ft 486 kts 100°
2026-05-05 09:03 42.11985 35.63080 35024 ft 485 kts 100°
2026-05-05 09:03 42.10676 35.72016 35023 ft 485 kts 100°
2026-05-05 09:04 42.09371 35.80876 35028 ft 486 kts 100°
2026-05-05 09:04 42.08049 35.89808 35017 ft 486 kts 100°
2026-05-05 09:05 42.06717 35.98742 35018 ft 486 kts 100°
2026-05-05 09:05 42.05380 36.07671 35015 ft 486 kts 101°
2026-05-05 09:06 42.04037 36.16595 35019 ft 487 kts 101°
2026-05-05 09:06 42.02691 36.25481 35018 ft 488 kts 101°
2026-05-05 09:07 42.01329 36.34420 35018 ft 488 kts 101°
2026-05-05 09:07 41.99961 36.43354 35019 ft 488 kts 101°
2026-05-05 09:08 41.98586 36.52284 35017 ft 487 kts 101°
2026-05-05 09:08 41.97206 36.61197 35018 ft 487 kts 101°
2026-05-05 09:09 41.95819 36.70107 35017 ft 487 kts 101°
2026-05-05 09:09 41.94427 36.79001 35020 ft 487 kts 101°
2026-05-05 09:10 41.93035 36.87853 35018 ft 488 kts 102°
2026-05-05 09:10 41.91626 36.96760 35017 ft 488 kts 102°
2026-05-05 09:11 41.89944 37.05596 35019 ft 488 kts 110°
2026-05-05 09:11 41.87444 37.14062 35019 ft 488 kts 112°
2026-05-05 09:12 41.84783 37.22496 35016 ft 491 kts 113°
2026-05-05 09:12 41.82114 37.30864 35016 ft 491 kts 113°
2026-05-05 09:13 41.79431 37.39301 35014 ft 491 kts 113°
2026-05-05 09:13 41.77642 37.44934 35015 ft 492 kts 114°
2026-05-05 09:14 41.76012 37.50061 35015 ft 494 kts 114°
2026-05-05 09:15 41.73306 37.58550 35014 ft 495 kts 114°
2026-05-05 09:15 41.70597 37.67019 35012 ft 495 kts 114°
2026-05-05 09:16 41.67885 37.75486 35009 ft 495 kts 114°
2026-05-05 09:16 41.65222 37.83764 35010 ft 494 kts 115°
2026-05-05 09:17 41.62492 37.92222 35010 ft 494 kts 115°
2026-05-05 09:17 41.59780 38.00601 35004 ft 494 kts 115°
2026-05-05 09:18 41.57040 38.09040 35003 ft 494 kts 115°
2026-05-05 09:18 41.54295 38.17470 34999 ft 494 kts 115°
2026-05-05 09:19 41.51547 38.25883 34995 ft 494 kts 115°
2026-05-05 09:19 41.48806 38.34248 35002 ft 495 kts 116°
2026-05-05 09:20 41.46046 38.42647 34995 ft 495 kts 116°
2026-05-05 09:20 41.43272 38.51059 34998 ft 495 kts 116°
2026-05-05 09:21 41.40502 38.59440 34993 ft 495 kts 116°
2026-05-05 09:21 41.37709 38.67859 34996 ft 496 kts 116°
2026-05-05 09:22 41.34917 38.76249 34996 ft 496 kts 116°
2026-05-05 09:22 41.32130 38.84654 34989 ft 496 kts 116°
2026-05-05 09:23 41.29380 38.93084 35001 ft 497 kts 116°
2026-05-05 09:23 41.26640 39.01474 34999 ft 497 kts 116°
2026-05-05 09:24 41.23865 39.09916 35002 ft 497 kts 116°
2026-05-05 09:24 41.21083 39.18346 35001 ft 498 kts 117°
2026-05-05 09:25 41.18210 39.26704 35002 ft 497 kts 118°
2026-05-05 09:25 41.15281 39.34975 35004 ft 497 kts 118°
2026-05-05 09:26 41.12341 39.43295 35008 ft 497 kts 118°
2026-05-05 09:26 41.09415 39.51605 35013 ft 497 kts 118°
2026-05-05 09:27 41.06498 39.59882 35018 ft 497 kts 118°
2026-05-05 09:27 41.03565 39.68184 35008 ft 497 kts 118°
2026-05-05 09:28 41.00737 39.76577 35022 ft 502 kts 112°
2026-05-05 09:28 40.99403 39.85699 35026 ft 509 kts 97°
2026-05-05 09:29 40.99079 39.95031 35027 ft 511 kts 95°
2026-05-05 09:29 40.98897 40.04428 34998 ft 511 kts 94°
2026-05-05 09:30 40.98697 40.13868 34997 ft 513 kts 95°
2026-05-05 09:30 40.98463 40.23306 34989 ft 513 kts 95°
2026-05-05 09:31 40.98208 40.32735 34994 ft 512 kts 95°
2026-05-05 09:31 40.97984 40.40575 34989 ft 512 kts 95°
2026-05-05 09:32 40.97664 40.51538 34986 ft 513 kts 95°
2026-05-05 09:32 40.97430 40.59437 34988 ft 513 kts 95°
2026-05-05 09:33 40.97142 40.68880 34989 ft 513 kts 95°
2026-05-05 09:33 40.96850 40.78261 34982 ft 513 kts 95°
2026-05-05 09:34 40.96548 40.87695 34972 ft 512 kts 95°
2026-05-05 09:34 40.96237 40.97132 34972 ft 512 kts 95°
2026-05-05 09:35 40.95921 41.06499 34973 ft 512 kts 95°
2026-05-05 09:35 40.95431 41.20625 34965 ft 512 kts 95°
2026-05-05 09:36 40.95094 41.30037 34940 ft 512 kts 96°
2026-05-05 09:36 40.94750 41.39456 34939 ft 512 kts 96°
2026-05-05 09:37 40.94395 41.48874 34922 ft 512 kts 96°
2026-05-05 09:37 40.94043 41.58301 34918 ft 513 kts 96°
2026-05-05 09:38 40.93678 41.67655 34903 ft 512 kts 96°
2026-05-05 09:38 40.93301 41.77078 34897 ft 513 kts 96°
2026-05-05 09:39 40.92919 41.86490 34906 ft 513 kts 96°
2026-05-05 09:39 40.92526 41.95929 34908 ft 513 kts 96°
2026-05-05 09:40 40.92127 42.05351 34911 ft 513 kts 96°
2026-05-05 09:40 40.91723 42.14772 34922 ft 514 kts 97°
2026-05-05 09:41 40.91308 42.24209 34928 ft 514 kts 97°
2026-05-05 09:41 40.90886 42.33663 34942 ft 514 kts 97°
2026-05-05 09:42 40.90459 42.43034 34952 ft 514 kts 97°